2024-149DD (60567 NORAD) Tracking and Keplerian Element Data

This shows tracking and keplerian element data for the satellite.

Feedback or suggestion? Click here.




ElementValue
Catalog60567
Name2024-149DD
Epoch Orbit849
Epoch Day286.771082
Epoch Year2024
RAAN1.4445
Inclination97.7447
Eccentricity0.0001323
Argument of Perigee275.1011
Mean Anonmoly85.0059
Mean Motion14.96267352
Decay Rate0.00042713
L11 60567U 24149DD 24286.77108200 .00042713 00000+0 37663-2 0 9994
L22 60567 97.7447 1.4445 0001323 275.1011 85.0059 14.96267352 8491



Live tracking and technical data element details for 2024-149DD (NORAD 60567). 2024-149DD can be tracked NOW for your location showing map with azimuth and elevation plus other details from your city location.







IsCatalogInMostPopularTable: catalog: 60567, numindb: 5
Update: records affected: 1



GetName: 60567 2024-149DD

Hit Count: updated at: Tue, 03 Dec 2024 02:42:05 GMT